Date String (YYYY-MM-DD hh:mm:ss) UTC,Instrument flags,absolute air pressure of the measurement (hPa),sample flow rate (lpm),inlet stack bypass flow (lpm),air temperature of the measurement (°C),ambient temperature measured by the external sensor (°C),aerosol sample conditioner tube jacket temperature (°C),OPC LED temperature (°C),internal box temperature (°C),relative humidity of the measurement (%),span deviation,mass concentration of particles derived from Lorenz-Mie calculation of OPC scattering (μg/m³),mass concentration of particles derived from Lorenz-Mie calculation of OPC scattering (μg/m³),mass concentration of particles derived from Lorenz-Mie calculation of OPC scattering (μg/m³)
DateTimeUTC,F1_M11,P_M11,Q1_M11,Q2_M11,T1_M11,T2_M11,T3_M11,T4_M11,T5_M11,U1_M11,ZSPAN_M11,X0_M11,X2_M11,X1_M11
2023-06-14 13:00:00,SystemResetWarning,0827.4,4.99,000.00,028.8,027.2,000.0,037.4,030.4,19.2,0000.0,0003.52,0002.21,0001.75
2023-06-14 13:01:00,SystemResetWarning,0827.4,4.99,000.00,028.9,027.2,000.0,037.4,030.4,19.2,0000.0,0003.57,0002.23,0001.75
2023-06-14 13:02:00,SystemResetWarning,0827.4,5.00,000.00,028.9,027.2,000.0,037.4,030.4,19.8,0000.0,0003.49,0002.20,0001.75
2023-06-14 13:03:00,SystemResetWarning,0827.4,5.02,000.00,028.9,027.2,000.0,037.4,030.3,20.7,0000.0,0003.37,0002.19,0001.75
2023-06-14 13:04:00,SystemResetWarning,0827.4,5.01,000.00,028.9,027.2,000.0,037.4,030.4,19.4,0000.0,0003.31,0002.19,0001.76
2023-06-14 13:05:00,SystemResetWarning,0827.3,5.00,000.00,028.9,027.2,000.0,037.4,030.4,19.2,0000.0,0003.20,0002.17,0001.77
2023-06-14 13:06:00,SystemResetWarning,0827.4,5.00,000.00,028.9,027.2,000.0,037.4,030.4,19.7,0000.0,0003.17,0002.17,0001.78
2023-06-14 13:07:00,SystemResetWarning,0827.4,5.00,000.00,028.9,027.2,000.0,037.4,030.4,22.7,0000.0,0003.13,0002.15,0001.78
2023-06-14 13:08:00,SystemResetWarning,0827.4,5.00,000.00,028.9,027.2,000.0,037.4,030.4,22.8,0000.0,0003.02,0002.12,0001.77
2023-06-14 13:09:00,SystemResetWarning,0827.4,5.00,000.00,028.9,027.2,000.0,037.4,030.4,20.6,0000.0,0003.02,0002.14,0001.77
2023-06-14 13:10:00,SystemResetWarning,0827.4,4.99,000.00,028.9,027.2,000.0,037.4,030.4,20.6,0000.0,0002.91,0002.12,0001.76
2023-06-14 13:11:00,SystemResetWarning,0827.4,5.00,000.00,028.9,027.2,000.0,037.4,030.4,19.6,0000.0,0002.82,0002.07,0001.75
2023-06-14 13:12:00,SystemResetWarning,0827.4,5.00,000.00,028.9,027.2,000.0,037.4,030.4,19.7,0000.0,0002.81,0002.07,0001.75
2023-06-14 13:13:00,SystemResetWarning,0827.4,5.00,000.00,028.9,027.2,000.0,037.5,030.4,21.2,0000.0,0002.93,0002.12,0001.75
2023-06-14 13:14:00,SystemResetWarning,0827.5,5.00,000.00,028.9,027.3,000.0,037.5,030.4,24.1,0000.0,0002.89,0002.10,0001.76
2023-06-14 13:15:00,SystemResetWarning,0827.4,5.01,000.00,028.9,027.3,000.0,037.5,030.4,25.0,0000.0,0002.93,0002.11,0001.76
2023-06-14 13:16:00,SystemResetWarning,0827.4,5.00,000.00,028.9,027.3,000.0,037.5,030.4,25.1,0000.0,0002.93,0002.10,0001.76
2023-06-14 13:17:00,SystemResetWarning,0827.4,5.01,000.00,029.0,027.3,000.0,037.5,030.4,24.5,0000.0,0003.00,0002.10,0001.76
2023-06-14 13:18:00,SystemResetWarning,0827.5,5.00,000.00,029.0,027.3,000.0,037.5,030.4,24.4,0000.0,0003.06,0002.12,0001.76
2023-06-14 13:19:00,SystemResetWarning,0827.4,5.01,000.00,029.0,027.3,000.0,037.5,030.4,24.1,0000.0,0003.11,0002.12,0001.75
2023-06-14 13:20:00,SystemResetWarning,0827.4,4.99,000.00,029.0,027.3,000.0,037.5,030.5,25.2,0000.0,0003.15,0002.13,0001.75
2023-06-14 13:21:00,SystemResetWarning,0827.6,4.99,000.00,029.0,027.3,000.0,037.5,030.5,24.7,0000.0,0003.21,0002.16,0001.76
2023-06-14 13:22:00,SystemResetWarning,0827.7,5.00,000.00,029.0,027.3,000.0,037.5,030.5,23.2,0000.0,0003.29,0002.19,0001.78
2023-06-14 13:23:00,SystemResetWarning,0827.9,5.00,000.00,029.0,027.3,000.0,037.5,030.5,22.2,0000.0,0003.27,0002.18,0001.78
2023-06-14 13:24:00,SystemResetWarning,0827.6,5.00,000.00,029.0,027.4,000.0,037.5,030.5,22.3,0000.0,0003.19,0002.13,0001.77
2023-06-14 13:25:00,SystemResetWarning,0827.5,5.00,000.00,029.0,027.4,000.0,037.5,030.5,23.1,0000.0,0003.35,0002.16,0001.77
2023-06-14 13:26:00,SystemResetWarning,0827.5,5.00,000.00,029.0,027.4,000.0,037.5,030.5,22.7,0000.0,0003.41,0002.17,0001.77
2023-06-14 13:27:00,SystemResetWarning,0827.5,5.00,000.00,029.0,027.4,000.0,037.5,030.5,22.6,0000.0,0003.45,0002.18,0001.77
2023-06-14 13:28:00,SystemResetWarning,0827.6,5.01,000.00,029.0,027.4,000.0,037.6,030.5,22.4,0000.0,0003.44,0002.21,0001.77
2023-06-14 13:29:00,SystemResetWarning,0827.6,5.01,000.00,029.0,027.4,000.0,037.6,030.5,23.7,0000.0,0003.41,0002.20,0001.77
2023-06-14 13:30:00,SystemResetWarning,0827.6,5.00,000.00,029.0,027.4,000.0,037.6,030.5,23.8,0000.0,0003.31,0002.20,0001.77
2023-06-14 13:31:00,SystemResetWarning,0827.7,4.99,000.00,029.0,027.4,000.0,037.6,030.6,22.6,0000.0,0003.26,0002.18,0001.76
2023-06-14 13:32:00,SystemResetWarning,0827.7,5.00,000.00,029.1,027.4,000.0,037.6,030.6,23.2,0000.0,0003.31,0002.21,0001.76
2023-06-14 13:33:00,SystemResetWarning,0827.7,4.99,000.00,029.1,027.4,000.0,037.6,030.6,22.7,0000.0,0003.42,0002.24,0001.77
2023-06-14 13:34:00,SystemResetWarning,0827.7,5.00,000.00,029.1,027.4,000.0,037.6,030.6,22.9,0000.0,0003.44,0002.25,0001.76
2023-06-14 13:35:00,SystemResetWarning,0827.7,5.00,000.00,029.1,027.4,000.0,037.6,030.6,22.8,0000.0,0003.51,0002.29,0001.79
2023-06-14 13:36:00,SystemResetWarning,0827.7,5.00,000.00,029.1,027.5,000.0,037.6,030.6,21.1,0000.0,0003.41,0002.27,0001.79
2023-06-14 13:37:00,SystemResetWarning,0827.7,5.00,000.00,029.1,027.5,000.0,037.6,030.6,21.6,0000.0,0003.35,0002.26,0001.80
2023-06-14 13:38:00,SystemResetWarning,0827.7,5.00,000.00,029.1,027.5,000.0,037.6,030.6,21.1,0000.0,0003.38,0002.27,0001.80
2023-06-14 13:39:00,SystemResetWarning,0827.7,5.00,000.00,029.1,027.5,000.0,037.6,030.6,22.3,0000.0,0003.41,0002.28,0001.81
2023-06-14 13:40:00,SystemResetWarning,0827.7,5.00,000.00,029.1,027.5,000.0,037.6,030.7,22.9,0000.0,0003.45,0002.28,0001.82
2023-06-14 13:41:00,SystemResetWarning,0827.7,5.00,000.00,029.1,027.5,000.0,037.6,030.6,26.7,0000.0,0003.50,0002.29,0001.82
2023-06-14 13:42:00,SystemResetWarning,0827.7,5.00,000.00,029.1,027.5,000.0,037.6,030.6,27.9,0000.0,0004.00,0002.31,0001.83
2023-06-14 13:43:00,SystemResetWarning,0827.7,5.00,000.00,029.1,027.5,000.0,037.6,030.7,29.9,0000.0,0004.47,0002.31,0001.83
2023-06-14 13:44:00,SystemResetWarning,0827.7,5.00,000.00,029.1,027.5,000.0,037.7,030.7,29.0,0000.0,0005.82,0002.29,0001.83
2023-06-14 13:45:00,SystemResetWarning,0827.7,5.00,000.00,029.1,027.5,000.0,037.7,030.7,27.5,0000.0,0006.57,0002.33,0001.84
2023-06-14 13:46:00,SystemResetWarning,0827.7,5.00,000.00,029.2,027.5,000.0,037.7,030.7,28.1,0000.0,0007.29,0002.33,0001.84
2023-06-14 13:47:00,SystemResetWarning,0827.7,5.00,000.00,029.2,027.5,000.0,037.7,030.7,29.1,0000.0,0007.33,0002.34,0001.86
2023-06-14 13:48:00,SystemResetWarning,0827.7,4.99,000.00,029.2,027.5,000.0,037.7,030.7,30.1,0000.0,0007.31,0002.34,0001.88
2023-06-14 13:49:00,SystemResetWarning,0827.8,5.00,000.00,029.2,027.5,000.0,037.7,030.7,29.9,0000.0,0007.30,0002.36,0001.90
2023-06-14 13:50:00,SystemResetWarning,0827.8,5.00,000.00,029.2,027.5,000.0,037.7,030.7,30.0,0000.0,0007.36,0002.39,0001.92
2023-06-14 13:51:00,SystemResetWarning,0827.8,5.01,000.00,029.2,027.5,000.0,037.7,030.7,29.9,0000.0,0007.37,0002.41,0001.93
2023-06-14 13:52:00,SystemResetWarning,0827.8,5.01,000.00,029.2,027.6,000.0,037.7,030.7,29.7,0000.0,0007.55,0002.52,0001.95
2023-06-14 13:53:00,SystemResetWarning,0827.8,5.00,000.00,029.2,027.6,000.0,037.7,030.7,29.7,0000.0,0007.47,0002.56,0001.98
2023-06-14 13:54:00,SystemResetWarning,0827.7,5.00,000.00,029.2,027.6,000.0,037.7,030.7,30.3,0000.0,0007.39,0002.57,0001.99
2023-06-14 13:55:00,SystemResetWarning,0827.8,4.99,000.00,029.2,027.6,000.0,037.7,030.7,28.7,0000.0,0006.26,0002.61,0002.01
2023-06-14 13:56:00,SystemResetWarning,0827.7,4.99,000.00,029.2,027.6,000.0,037.7,030.7,24.7,0000.0,0005.58,0002.60,0002.02
2023-06-14 13:57:00,SystemResetWarning,0827.8,5.00,000.00,029.2,027.6,000.0,037.7,030.7,25.8,0000.0,0004.68,0002.59,0002.02
2023-06-14 13:58:00,SystemResetWarning,0827.7,5.00,000.00,029.2,027.6,000.0,037.7,030.7,27.6,0000.0,0004.67,0002.60,0002.01
2023-06-14 13:59:00,SystemResetWarning,0827.8,5.00,000.00,029.2,027.6,000.0,037.7,030.7,28.9,0000.0,0004.83,0002.67,0002.00
